Weather in Aydyrlinskiy

Russia / Orenburg Oblast     52°03′07″N   59°45′53″E
temp.,
°C
wind,
m/s
gust,
m/s
humid.,
%
clouds,
%
prec.,
mm/h
press.,
hPa
HPBL,
m
28 february, sun
sun2823:00−7s4995100 0.9 1007291
02:00−6s3696100 0.6 1006201
05:00−3sse4797100 1.4 1004220
08:000ssw4799100 2.3 1003352
11:000wsw6899100 4.4 1002510
14:00−1wnw3497100 0.3 1002251
17:00−3wnw3497100 1.4 1002266
20:00−5n2397100 0.5 100566
1 march, mon
mon123:00−9n339696 0.7 100855
02:00−12nnw239587 0.1 101021
05:00−15nw129684 0.2 101220
08:00−14nw119693 0.1 101420
11:00−12sw229387 0.2 1016179
14:00−11sw349399 0.1 1017322
17:00−11sw359499 0.1 1017350
20:00−13sw479697 0.2 1018161
2 march, tue
tue223:00−14wsw479696 0.3 1018185
02:00−16sw589786 0.1 1018152
05:00−17wsw599584 0.1 1018205
08:00−19wsw5109746 0.0 1018172
11:00−18wsw6109329 0.0 1018282
14:00−15wsw7109270 0.0 1016358
17:00−16sw7119172 0.0 1016333
20:00−18sw6129471 0.0 1016258
3 march, wed
wed323:00−16sw6129485 0.0 1015328
02:00−14ssw61295100 0.1 1012319
05:00−9ssw71494100 0.6 1010522
08:00−7ssw91593100 0.4 1007620
11:00−5ssw91592100 0.9 1006764
14:00−2ssw91494100 0.5 1004939
17:00−1ssw81295100 1.2 1002839
20:00−2sw61197100 0.7 1002495
4 march, thu
thu423:00−4sw51096100 0.9 1002312
02:00−5wsw61094100 0.3 1002318
05:00−7w599597 0.6 1004235
08:00−12w469149 0.0 100693
11:00−9wnw488925 0.0 1007257
14:00−6wnw588668 0.0 1009533
17:00−6w478935 0.0 1011188
20:00−9w5118868 0.1 1013199